TimeAKDT,TemperatureF,Dew PointF,Humidity,Sea Level PressureIn,VisibilityMPH,Wind Direction,Wind SpeedMPH,Gust SpeedMPH,PrecipitationIn,Events,Conditions,WindDirDegrees,DateUTC
12:05 AM,42.8,41.0,93,29.83,2.0,Calm,Calm,-,N/A,,Mostly Cloudy,0,2013-09-13 08:05:00
12:13 AM,42.8,41.0,93,29.83,10.0,Calm,Calm,-,N/A,,Overcast,0,2013-09-13 08:13:00
12:53 AM,39.9,39.0,97,29.85,10.0,SW,3.5,-,N/A,,Clear,220,2013-09-13 08:53:00
1:14 AM,37.4,37.4,100,29.84,1.8,Calm,Calm,-,N/A,,Clear,0,2013-09-13 09:14:00
1:22 AM,39.2,37.4,93,29.85,2.0,SSW,3.5,-,N/A,,Partly Cloudy,210,2013-09-13 09:22:00
1:30 AM,41.0,39.2,93,29.85,10.0,SSW,3.5,-,N/A,,Clear,210,2013-09-13 09:30:00
1:48 AM,37.4,37.4,100,29.85,1.8,Calm,Calm,-,N/A,,Partly Cloudy,0,2013-09-13 09:48:00
1:53 AM,37.0,36.0,96,29.87,2.5,Calm,Calm,-,N/A,,Partly Cloudy,0,2013-09-13 09:53:00
2:02 AM,37.4,35.6,93,29.86,4.0,Calm,Calm,-,N/A,,Partly Cloudy,0,2013-09-13 10:02:00
2:53 AM,35.1,33.1,92,29.88,8.0,Calm,Calm,-,N/A,,Clear,0,2013-09-13 10:53:00
3:02 AM,33.8,33.8,100,29.87,6.0,Calm,Calm,-,N/A,,Scattered Clouds,0,2013-09-13 11:02:00
3:09 AM,33.8,33.8,100,29.88,2.5,Calm,Calm,-,N/A,,Mostly Cloudy,0,2013-09-13 11:09:00
3:16 AM,35.6,33.8,93,29.88,0.8,Calm,Calm,-,N/A,,Mist,0,2013-09-13 11:16:00
3:37 AM,33.8,32.0,93,29.89,2.0,Calm,Calm,-,N/A,,Mostly Cloudy,0,2013-09-13 11:37:00
3:40 AM,33.8,32.0,93,29.89,6.0,Calm,Calm,-,N/A,,Mostly Cloudy,0,2013-09-13 11:40:00
3:53 AM,34.0,33.1,96,29.90,10.0,Calm,Calm,-,N/A,,Mostly Cloudy,0,2013-09-13 11:53:00
4:53 AM,32.0,32.0,100,29.91,10.0,Calm,Calm,-,N/A,,Clear,0,2013-09-13 12:53:00
5:53 AM,33.1,32.0,96,29.91,10.0,Calm,Calm,-,N/A,,Clear,0,2013-09-13 13:53:00
6:53 AM,32.0,30.0,92,29.91,10.0,SW,3.5,-,N/A,,Clear,230,2013-09-13 14:53:00
7:28 AM,30.2,30.2,100,29.91,10.0,Calm,Calm,-,N/A,,Scattered Clouds,0,2013-09-13 15:28:00
7:37 AM,33.8,30.2,87,29.91,8.0,SW,4.6,-,0.00,,Mostly Cloudy,220,2013-09-13 15:37:00
7:53 AM,33.1,32.0,96,29.92,9.0,Calm,Calm,-,0.00,,Mostly Cloudy,0,2013-09-13 15:53:00
8:09 AM,33.8,32.0,93,29.91,10.0,Calm,Calm,-,N/A,,Scattered Clouds,0,2013-09-13 16:09:00
8:14 AM,32.0,30.2,93,29.91,1.8,Calm,Calm,-,N/A,,Scattered Clouds,0,2013-09-13 16:14:00
8:21 AM,33.8,32.0,93,29.91,0.8,Calm,Calm,-,N/A,,Mist,0,2013-09-13 16:21:00
8:34 AM,33.8,30.2,87,29.91,1.2,Calm,Calm,-,N/A,,Partly Cloudy,0,2013-09-13 16:34:00
8:36 AM,33.8,32.0,93,29.91,4.0,Calm,Calm,-,N/A,,Partly Cloudy,0,2013-09-13 16:36:00
8:53 AM,34.0,32.0,92,29.92,10.0,SSW,3.5,-,N/A,,Clear,210,2013-09-13 16:53:00
9:53 AM,37.0,36.0,96,29.93,10.0,Calm,Calm,-,0.00,Rain,Light Rain,0,2013-09-13 17:53:00
10:07 AM,37.4,35.6,93,29.92,4.0,Calm,Calm,-,0.00,,Scattered Clouds,0,2013-09-13 18:07:00
10:53 AM,41.0,37.9,89,29.93,10.0,Calm,Calm,-,0.00,,Clear,0,2013-09-13 18:53:00
11:53 AM,46.9,43.0,86,29.93,10.0,Calm,Calm,-,0.00,,Partly Cloudy,0,2013-09-13 19:53:00
12:53 PM,48.9,42.1,77,29.94,10.0,SSW,5.8,-,N/A,,Mostly Cloudy,210,2013-09-13 20:53:00
1:53 PM,48.9,42.1,77,29.94,10.0,SW,5.8,-,N/A,,Overcast,230,2013-09-13 21:53:00
2:53 PM,50.0,39.0,66,29.94,10.0,SW,11.5,-,N/A,,Overcast,230,2013-09-13 22:53:00
3:53 PM,50.0,39.9,68,29.95,10.0,WSW,11.5,-,N/A,,Overcast,240,2013-09-13 23:53:00
4:53 PM,50.0,41.0,71,29.96,10.0,SW,4.6,-,N/A,,Overcast,220,2013-09-14 00:53:00
5:53 PM,48.9,39.0,69,29.97,10.0,Variable,3.5,-,N/A,,Overcast,0,2013-09-14 01:53:00
6:53 PM,48.9,39.9,71,29.98,10.0,Calm,Calm,-,N/A,,Overcast,0,2013-09-14 02:53:00
7:53 PM,48.0,41.0,77,29.99,10.0,WSW,3.5,-,N/A,,Overcast,240,2013-09-14 03:53:00
8:53 PM,46.9,41.0,80,30.00,10.0,WSW,3.5,-,N/A,,Overcast,240,2013-09-14 04:53:00
9:53 PM,46.0,39.9,79,30.01,10.0,SW,3.5,-,N/A,,Overcast,230,2013-09-14 05:53:00
10:53 PM,45.0,39.9,82,30.02,10.0,WSW,3.5,-,N/A,,Overcast,240,2013-09-14 06:53:00
11:53 PM,44.1,39.9,85,30.03,10.0,Calm,Calm,-,N/A,,Overcast,0,2013-09-14 07:53:00